Location: Fredericksburg
(30.2750°N, 98.8720°W)
Time: 20:37:04
(UTC-06:00)

PCSat - Visible Passes

Search period start: 09 February 2016 00:00
Search period end: 19 February 2016 00:00
Orbit: 785 x 796 km, 67.1° (Epoch: 08 February)

Date Brightness Start Highest point End Pass type
(mag) Time Alt. Az. Time Alt. Az. Time Alt. Az.
09 Feb 12.1 21:02:14 10° NNW 21:02:43 13° NNW 21:02:43 13° NNW visible
10 Feb 11.2 20:31:32 10° NNW 20:33:33 23° N 20:33:33 23° N visible
11 Feb 10.4 20:00:58 10° N 20:04:35 33° NNE 20:04:35 33° NNE visible
11 Feb 12.5 21:45:07 10° WNW 21:45:22 11° WNW 21:45:22 11° WNW visible
12 Feb 10.4 19:30:31 10° N 19:35:07 28° ENE 19:35:51 27° ENE visible
12 Feb 11.5 21:13:44 10° NW 21:16:41 25° WNW 21:16:41 25° WNW visible
13 Feb 10.9 19:00:15 10° N 19:04:11 20° NE 19:07:30 12° E visible
13 Feb 10.5 20:42:35 10° NW 20:47:43 44° WSW 20:48:21 42° SW visible
14 Feb 9.9 20:11:37 10° NNW 20:16:59 66° WSW 20:20:36 21° S visible
15 Feb 9.5 19:40:47 10° NNW 19:46:14 86° ENE 19:51:38 10° SSE visible
16 Feb 9.6 19:10:04 10° NNW 19:15:25 60° ENE 19:20:45 10° SE visible
16 Feb 12.5 20:55:52 10° WNW 20:58:13 13° WSW 21:00:33 10° SW visible
17 Feb 10.0 18:39:27 10° N 18:44:35 41° ENE 18:49:39 10° SE visible
17 Feb 12.1 20:23:49 10° WNW 20:27:35 19° WSW 20:31:20 10° SSW visible
18 Feb 11.6 19:52:22 10° NW 19:56:56 28° WSW 20:01:29 10° SSW visible
